TimeMDT,TemperatureF,Dew PointF,Humidity,Sea Level PressureIn,VisibilityMPH,Wind Direction,Wind SpeedMPH,Gust SpeedMPH,PrecipitationIn,Events,Conditions,WindDirDegrees,DateUTC
12:15 AM,69.8,42.8,38,30.10,10.0,NNW,4.6,-,N/A,,Clear,330,2013-08-09 06:15:00
12:35 AM,66.2,44.6,46,30.09,10.0,Calm,Calm,-,N/A,,Clear,0,2013-08-09 06:35:00
12:55 AM,64.4,44.6,49,30.08,10.0,NNW,5.8,-,N/A,,Clear,340,2013-08-09 06:55:00
1:15 AM,66.2,42.8,43,30.08,10.0,NNW,10.4,-,N/A,,Clear,330,2013-08-09 07:15:00
1:35 AM,64.4,44.6,49,30.08,10.0,WNW,5.8,-,N/A,,Clear,290,2013-08-09 07:35:00
1:55 AM,62.6,44.6,52,30.08,10.0,NW,10.4,-,N/A,,Clear,320,2013-08-09 07:55:00
2:15 AM,64.4,42.8,45,30.08,10.0,NW,11.5,-,N/A,,Clear,320,2013-08-09 08:15:00
2:35 AM,62.6,44.6,52,30.08,10.0,WNW,11.5,-,N/A,,Clear,300,2013-08-09 08:35:00
2:55 AM,60.8,44.6,55,30.08,10.0,NW,11.5,-,N/A,,Clear,310,2013-08-09 08:55:00
3:15 AM,60.8,44.6,55,30.07,10.0,NNW,12.7,-,N/A,,Clear,330,2013-08-09 09:15:00
3:35 AM,60.8,42.8,52,30.07,10.0,NW,11.5,-,N/A,,Clear,310,2013-08-09 09:35:00
3:55 AM,60.8,42.8,52,30.08,10.0,NW,10.4,-,N/A,,Clear,320,2013-08-09 09:55:00
4:15 AM,60.8,42.8,52,30.08,10.0,NNW,10.4,-,N/A,,Clear,330,2013-08-09 10:15:00
4:35 AM,60.8,42.8,52,30.08,10.0,NW,10.4,-,N/A,,Clear,320,2013-08-09 10:35:00
4:55 AM,59.0,42.8,55,30.08,10.0,WNW,10.4,-,N/A,,Clear,300,2013-08-09 10:55:00
5:15 AM,59.0,42.8,55,30.08,10.0,NW,11.5,-,N/A,,Clear,310,2013-08-09 11:15:00
5:35 AM,57.2,42.8,59,30.08,10.0,NW,10.4,-,N/A,,Clear,320,2013-08-09 11:35:00
5:55 AM,57.2,41.0,55,30.08,10.0,NW,11.5,-,N/A,,Clear,320,2013-08-09 11:55:00
6:15 AM,55.4,41.0,58,30.08,10.0,NW,10.4,-,N/A,,Clear,310,2013-08-09 12:15:00
6:35 AM,55.4,41.0,58,30.08,10.0,NNW,10.4,17.3,N/A,,Clear,330,2013-08-09 12:35:00
6:47 AM,57.2,42.8,59,30.09,10.0,WNW,11.5,-,N/A,,Scattered Clouds,290,2013-08-09 12:47:00
6:55 AM,55.4,41.0,58,30.09,10.0,NNW,10.4,-,N/A,,Clear,330,2013-08-09 12:55:00
7:47 AM,57.2,42.8,59,30.10,10.0,WNW,11.5,-,N/A,,Scattered Clouds,300,2013-08-09 13:47:00
8:47 AM,62.6,42.8,48,30.11,10.0,NW,11.5,-,N/A,,Scattered Clouds,310,2013-08-09 14:47:00
9:47 AM,66.2,42.8,43,30.10,10.0,WNW,11.5,-,N/A,,Partly Cloudy,300,2013-08-09 15:47:00
10:47 AM,73.4,44.6,36,30.11,10.0,ESE,5.8,-,N/A,,Partly Cloudy,120,2013-08-09 16:47:00
11:47 AM,78.8,46.4,32,30.10,10.0,SSE,11.5,18.4,N/A,,Partly Cloudy,160,2013-08-09 17:47:00
12:47 PM,80.6,44.6,28,30.10,10.0,SSE,11.5,19.6,N/A,,Partly Cloudy,150,2013-08-09 18:47:00
1:47 PM,82.4,41.0,23,30.08,10.0,SSE,11.5,18.4,N/A,,Partly Cloudy,150,2013-08-09 19:47:00
2:47 PM,84.2,35.6,18,30.07,10.0,South,11.5,19.6,N/A,,Partly Cloudy,180,2013-08-09 20:47:00
3:47 PM,84.2,33.8,16,30.06,10.0,SE,11.5,18.4,N/A,,Scattered Clouds,140,2013-08-09 21:47:00
4:54 PM,84.2,33.8,16,30.04,10.0,SE,10.4,20.7,N/A,,Scattered Clouds,130,2013-08-09 22:54:00
5:50 PM,82.4,35.6,19,30.02,10.0,SSE,12.7,20.7,N/A,,Scattered Clouds,150,2013-08-09 23:50:00
6:50 PM,80.6,41.0,24,30.01,10.0,SSE,10.4,-,N/A,,Scattered Clouds,150,2013-08-10 00:50:00
8:47 PM,73.4,39.2,29,30.02,10.0,Calm,Calm,-,N/A,,Partly Cloudy,0,2013-08-10 02:47:00
8:55 PM,75.2,42.8,31,30.01,10.0,South,4.6,-,N/A,,Scattered Clouds,180,2013-08-10 02:55:00
9:50 PM,71.6,35.6,27,30.05,10.0,WNW,5.8,-,N/A,,Partly Cloudy,300,2013-08-10 03:50:00
10:47 PM,68.0,35.6,30,30.06,10.0,WNW,5.8,-,N/A,,Partly Cloudy,300,2013-08-10 04:47:00
11:15 PM,68.0,33.8,28,30.05,10.0,NW,6.9,-,N/A,,Clear,310,2013-08-10 05:15:00
11:35 PM,68.0,33.8,28,30.06,10.0,NW,5.8,-,N/A,,Scattered Clouds,310,2013-08-10 05:35:00
11:55 PM,64.4,35.6,34,30.07,10.0,SW,4.6,-,N/A,,Scattered Clouds,220,2013-08-10 05:55:00